Regional Weather Roundup
Issued by NWS

Home | Current Version | Previous Version | Text Only | Print | Product List | Glossary Off
Versions: 1 2 3 4 5 6 7 8 9 10 11 12 13 14 15 16 17 18 19 20 21 22 23 24 25 26 27 28 29 30 31 32 33 34 35 36 37 38 39 40 41 42 43 44 45 46 47 48 49 50

220
ASUS43 KFSD 241910
RWRSD

WEATHER ROUNDUP FOR SOUTH DAKOTA
NATIONAL WEATHER SERVICE SIOUX FALLS SD
100 PM CST TUE JAN 24 2017

NOTE: "FAIR" INDICATES FEW OR NO CLOUDS BELOW 12,000 FEET WITH NO
SIGNIFICANT WEATHER AND/OR OBSTRUCTIONS TO VISIBILITY.


SDZ001>005-009-010-012>017-242000-
NORTHWEST AND NORTH CENTRAL SOUTH DAKOTA

CITY           SKY/WX    TMP DP  RH WIND       PRES   REMARKS
BUFFALO          N/A     21  16  81 N15       29.77F WCI   8
FAITH            N/A     22  20  92 N16       29.81F WCI   8
MOBRIDGE       LGT SNOW  24  18  77 N17       29.82S WCI  11
$$

SDZ012>016-024>037-041>051-057-063-072>074-242000-
SOUTHWEST AND SOUTH CENTRAL SOUTH DAKOTA

CITY           SKY/WX    TMP DP  RH WIND       PRES   REMARKS
RAPID CTY ARPT LGT SNOW  21  19  92 N21       29.78S VSB 3/4 WCI   5
PIERRE         SNOW      27  25  92 NE14      29.78R VSB 1/4 WCI  16
CUSTER         LGT SNOW  16  10  77 N6        29.63F VSB 3/4 WCI   7
ELLSWORTH AFB  LGT SNOW  21  21  98 N12       29.77F FOG     WCI   9
PINE RIDGE     SNOW      22  20  92 N13       29.71F VSB 1/2 WCI  10
SPEARFISH      LGT SNOW  19  18  93 W6        29.79F VSB 1   WCI  11
WINNER         HVY SNOW  31  29  92 NE10      29.70F VSB 1/4 WCI  22
$$

SDZ004>011-016>023-039-040-242000-
NORTHEAST SOUTH DAKOTA

CITY           SKY/WX    TMP DP  RH WIND       PRES   REMARKS
ABERDEEN       LGT SNOW  29  24  82 NE12      29.83F WCI  19
WATERTOWN      CLOUDY    29  25  85 E16       29.76F WCI  17
BROOKINGS      CLOUDY    29  27  92 NE12G18   29.74F WCI  19
SISSETON         N/A     31  29  92 NE7       29.84S WCI  24
$$

SDZ017-020-022-023-036>040-048>070-242000-
SOUTHEAST SOUTH DAKOTA

CITY           SKY/WX    TMP DP  RH WIND       PRES   REMARKS
SIOUX FALLS    CLOUDY    31  30  96 E16       29.75F WCI  20
HURON          CLOUDY    31  29  92 E9        29.77F WCI  23
CHAMBERLAIN    LGT SNOW  32  32  99 NE5       29.74F WCI  28
MITCHELL       CLOUDY    33  30  88 E10       29.75F WCI  25
YANKTON          N/A     30  28  93 NE15      29.67F VSB 1/2 WCI  19
$$

ABBREVIATIONS USED IN REMARKS
   TC - TEMPERATURE IN CELSIUS
  WCI - WIND CHILL INDEX
   HX - HEAT INDEX
  VSB - VISIBILITY





USA.gov is the U.S. government's official web portal to all federal, state and local government web resources and services.